Simultaneous Nadir Overpasses (SNOs) Predictions

Prediction of SNOs between FY3D and AQUA Satellite Orbit:

Table of predicted SNOs for the next 14.0 days since TLE Epoch: 2/17/2024
Index Date (FY3D) Time (FY3D) Lat,Lon (FY3D) SZA (FY3D ) Date (AQUA) Time (AQUA) Lat,Lon (AQUA) SZA (AQUA ) Distance(km) Time Diff (sec)
1 02/19/2024 12:53:51 79.26, -33.03 91.38 02/19/2024 12:54:33 79.26, -33.09 91.37 1.28 42
2 02/19/2024 13:44:28 -78.97, 136.50 89.06 02/19/2024 13:43:48 -78.98, 136.39 89.04 2.40 40
3 02/22/2024 01:48:27 79.29, 133.17 90.50 02/22/2024 01:48:48 79.28, 133.25 90.49 1.68 21
4 02/22/2024 02:39:03 -78.96, -57.04 89.99 02/22/2024 02:38:02 -78.96, -57.00 89.98 1.05 61
5 02/24/2024 14:43:00 79.22, -59.89 89.47 02/24/2024 14:42:59 79.21, -59.77 89.45 2.72 1
6 02/27/2024 02:46:52 -79.31, -61.50 91.35 02/27/2024 02:47:50 -79.32, -61.64 91.35 2.94 58
7 02/27/2024 03:37:32 79.13, 107.23 88.38 02/27/2024 03:37:08 79.12, 107.31 88.37 1.97 24
8 02/29/2024 15:41:27 -79.32, 104.77 92.29 02/29/2024 15:42:00 -79.32, 104.85 92.31 1.67 33



Historial Predications of SNOs between FY3D and AQUA
